EW8920 Duxbury MA US current weather conditions

sailwx.info

Wind from 234 at 3 knots gusting 7

Air temperature 20.0° C
Dewpoint 18.5° C

Last reported at 2019-Aug-21 04:10 UTC.
Time now 2019-Aug-21 04:39 UTC

Location: N 42°00' W 070°36'.
View on Google Maps.

See reports from other nearby stations

  
Tides and Currents Weather Stations Pressure Air Temp Water Temp Dewpoint Dewpoint Depression Visibility Wind Speed Wind Dir Waves Ship Positions
date/time (UTC)wind fromknots sea level pressurealtimeterstation pressurevisibilityair tempwater tempwave heightnotes
2019-Aug-21 04:10 234 3 gusting 7 20.0
2019-Aug-21 04:00 230 6 gusting 8 19.4
2019-Aug-21 03:50 235 4 gusting 7 19.4
2019-Aug-21 03:40 239 4 gusting 5 20.0
2019-Aug-21 03:30 252 1 gusting 4 20.0
2019-Aug-21 03:20 249 2 gusting 4 20.0
2019-Aug-21 03:10 251 1 gusting 7 20.6
2019-Aug-21 03:00 235 6 gusting 8 20.6
2019-Aug-21 02:50 231 6 gusting 8 20.6
2019-Aug-21 02:40 228 7 gusting 8 20.6
2019-Aug-21 02:30 231 5 gusting 7 20.6
2019-Aug-21 02:20 232 6 gusting 7 20.6
2019-Aug-21 02:10 234 5 gusting 8 20.6
2019-Aug-21 02:00 236 5 gusting 7 20.6
2019-Aug-21 01:50 230 4 gusting 6 20.6
2019-Aug-21 01:40 217 4 gusting 8 21.1
2019-Aug-21 01:30 214 6 gusting 9 21.1
2019-Aug-21 01:20 205 6 gusting 8 21.1
2019-Aug-21 01:10 211 6 gusting 8 21.7
2019-Aug-21 01:00 208 6 gusting 9 21.1
2019-Aug-21 00:50 191 7 gusting 10 21.1
2019-Aug-21 00:40 184 6 gusting 7 21.1
2019-Aug-21 00:30 205 6 gusting 9 21.7
2019-Aug-21 00:20 205 6 gusting 9 21.1
2019-Aug-21 00:10 195 7 gusting 10 20.6
2019-Aug-21 00:00 180 6 gusting 9 20.6
2019-Aug-20 23:50 174 5 gusting 8 21.1
2019-Aug-20 23:40 169 6 gusting 10 21.1
2019-Aug-20 23:30 166 6 gusting 9 21.1
2019-Aug-20 23:20 168 6 gusting 10 21.1
2019-Aug-20 23:10 177 6 gusting 10 21.1
2019-Aug-20 23:00 170 6 gusting 10 21.1
2019-Aug-20 22:50 175 6 gusting 9 21.1
2019-Aug-20 22:40 170 6 gusting 7 21.7
2019-Aug-20 22:30 175 4 gusting 7 21.7
2019-Aug-20 22:20 154 5 gusting 8 21.7
2019-Aug-20 22:10 131 6 gusting 8 21.7
2019-Aug-20 22:00 122 7 gusting 9 21.7
2019-Aug-20 21:50 123 6 gusting 8 21.7
2019-Aug-20 21:40 113 5 gusting 8 22.2
2019-Aug-20 21:30 116 6 gusting 9 22.2
2019-Aug-20 21:20 113 5 gusting 8 22.2
2019-Aug-20 21:10 122 7 gusting 8 22.2
2019-Aug-20 21:00 142 7 gusting 9 22.2
2019-Aug-20 20:50 142 6 gusting 9 22.2
2019-Aug-20 20:40 137 6 gusting 8 22.2
2019-Aug-20 20:30 131 6 gusting 7 22.8
2019-Aug-20 20:20 114 4 gusting 7 22.8
2019-Aug-20 20:10 113 4 gusting 6 23.3
2019-Aug-20 20:00 113 3 gusting 7 22.8
2019-Aug-20 19:50 092 6 gusting 6 22.8
2019-Aug-20 19:40 099 6 gusting 7 22.8
2019-Aug-20 19:30 089 5 gusting 6 23.3
2019-Aug-20 19:20 093 6 gusting 7 22.8
2019-Aug-20 19:10 083 6 gusting 8 22.8
2019-Aug-20 19:00 084 6 gusting 8 23.3
2019-Aug-20 18:50 080 6 gusting 7 23.9
2019-Aug-20 18:40 072 5 gusting 8 23.9
2019-Aug-20 18:30 057 6 gusting 9 23.9
2019-Aug-20 18:20 052 5 gusting 8 24.4
2019-Aug-20 18:10 052 6 gusting 8 24.4
2019-Aug-20 18:00 051 5 gusting 8 24.4
2019-Aug-20 17:50 049 6 gusting 9 24.4
2019-Aug-20 17:40 046 6 gusting 9 23.9
2019-Aug-20 17:30 045 6 gusting 9 23.9
2019-Aug-20 17:20 047 6 gusting 9 23.3
2019-Aug-20 17:10 044 6 gusting 9 23.9
2019-Aug-20 17:00 041 6 gusting 9 23.9
2019-Aug-20 16:50 044 6 gusting 10 23.3
2019-Aug-20 16:40 041 6 gusting 10 23.9
2019-Aug-20 16:30 032 7 gusting 9 23.3
2019-Aug-20 16:20 034 6 gusting 11 23.3
2019-Aug-20 16:10 031 6 gusting 10 23.3
2019-Aug-20 16:00 034 7 gusting 11 23.9
2019-Aug-20 15:50 025 6 gusting 11 23.9
2019-Aug-20 15:40 027 6 gusting 9 23.9
2019-Aug-20 15:30 030 6 gusting 10 23.9
2019-Aug-20 15:20 020 6 gusting 11 24.4
2019-Aug-20 15:10 025 6 gusting 12 23.9
2019-Aug-20 15:00 029 8 gusting 12 23.9
2019-Aug-20 14:50 028 9 gusting 12 23.3
2019-Aug-20 14:40 026 6 gusting 11 23.3
2019-Aug-20 14:30 024 6 gusting 10 23.9
2019-Aug-20 14:20 013 3 gusting 7 24.4
2019-Aug-20 14:10 007 3 gusting 6 25.0
2019-Aug-20 14:00 018 1 gusting 6 25.6
2019-Aug-20 13:50 010 2 gusting 5 25.6
2019-Aug-20 13:40 345 2 gusting 5 25.6
2019-Aug-20 13:30 345 2 gusting 7 25.0
2019-Aug-20 13:20 331 4 gusting 7 24.4
2019-Aug-20 13:10 323 3 gusting 7 24.4
2019-Aug-20 13:00 323 3 gusting 6 23.3
2019-Aug-20 12:50 318 3 gusting 5 22.8
2019-Aug-20 12:40 316 2 gusting 5 22.2
2019-Aug-20 12:30 309 3 gusting 6 22.2
2019-Aug-20 12:20 306 3 gusting 7 21.7
2019-Aug-20 12:10 301 4 gusting 6 21.1
2019-Aug-20 12:00 297 4 gusting 7 21.1
2019-Aug-20 11:50 289 5 gusting 6 20.6
2019-Aug-20 11:40 297 3 gusting 6 20.6
2019-Aug-20 11:30 308 3 gusting 6 20.6
2019-Aug-20 11:20 313 3 gusting 8 20.0
2019-Aug-20 11:10 301 5 gusting 7 20.0
2019-Aug-20 11:00 291 6 gusting 7 20.0
2019-Aug-20 10:50 301 5 gusting 7 20.0
2019-Aug-20 10:40 299 5 gusting 7 20.0
2019-Aug-20 10:30 299 6 gusting 9 20.0
2019-Aug-20 10:20 304 6 gusting 9 20.0
2019-Aug-20 10:10 303 6 gusting 10 19.4
2019-Aug-20 10:00 307 6 gusting 9 19.4
2019-Aug-20 09:50 307 4 gusting 7 19.4
2019-Aug-20 09:40 309 5 gusting 8 20.0
2019-Aug-20 09:30 306 6 gusting 8 20.0
2019-Aug-20 09:20 303 6 gusting 9 20.0
2019-Aug-20 09:10 306 6 gusting 9 20.0
2019-Aug-20 09:00 319 6 gusting 11 19.4
2019-Aug-20 08:50 289 7 gusting 10 20.6
2019-Aug-20 08:40 293 6 gusting 8 20.6
2019-Aug-20 08:30 286 6 gusting 8 20.6
2019-Aug-20 08:20 281 6 gusting 9 20.6
2019-Aug-20 08:10 282 5 gusting 6 20.0
2019-Aug-20 08:00 279 3 gusting 6 20.0
2019-Aug-20 07:50 251 2 gusting 6 20.0
2019-Aug-20 07:40 259 1 gusting 3 20.0
2019-Aug-20 07:30 273 3 gusting 7 20.0
2019-Aug-20 07:20 284 6 gusting 8 20.6
2019-Aug-20 07:10 290 6 gusting 8 20.0
2019-Aug-20 07:00 296 6 gusting 8 20.0
2019-Aug-20 06:50 295 6 gusting 8 20.0
2019-Aug-20 06:40 290 6 gusting 8 20.0
2019-Aug-20 06:30 295 6 gusting 8 20.0
2019-Aug-20 06:20 294 6 gusting 9 20.6
2019-Aug-20 06:10 302 6 gusting 9 20.6
2019-Aug-20 06:00 300 6 gusting 10 20.6
2019-Aug-20 05:50 295 6 gusting 9 20.6
2019-Aug-20 05:40 289 6 gusting 8 21.1
2019-Aug-20 05:30 301 5 gusting 7 21.1
2019-Aug-20 05:20 294 5 gusting 9 21.1
2019-Aug-20 05:10 284 6 gusting 7 21.1
2019-Aug-20 05:00 279 3 gusting 7 21.7
2019-Aug-20 04:50 283 5 gusting 8 21.7
2019-Aug-20 04:40 284 6 gusting 10 21.7
2019-Aug-20 04:30 283 7 gusting 10 21.7
2019-Aug-20 04:20 286 7 gusting 11 21.7
2019-Aug-20 04:10 291 8 gusting 11 21.7
2019-Aug-20 04:00 287 7 gusting 10 21.7
2019-Aug-20 03:50 288 6 gusting 8 21.1
2019-Aug-20 03:40 287 5 gusting 6 20.6
2019-Aug-20 03:30 282 4 gusting 6 20.6
2019-Aug-20 03:20 244 1 gusting 5 20.6
2019-Aug-20 03:10 257 1 gusting 6 20.6
2019-Aug-20 03:00 254 2 gusting 12 21.1
2019-Aug-20 02:50 282 8 gusting 13 21.7
2019-Aug-20 02:40 282 9 gusting 13 21.7
2019-Aug-20 02:30 283 10 gusting 15 21.7
2019-Aug-20 02:20 289 10 gusting 13 21.7
2019-Aug-20 02:10 294 9 gusting 14 21.7
2019-Aug-20 02:00 299 11 gusting 14 21.7
2019-Aug-20 01:50 302 10 gusting 13 21.7
2019-Aug-20 01:40 305 9 gusting 13 21.7
2019-Aug-20 01:30 300 11 gusting 13 21.7
2019-Aug-20 01:20 293 9 gusting 12 21.7
2019-Aug-20 01:10 290 9 gusting 11 22.2
2019-Aug-20 01:00 291 8 gusting 12 22.8
2019-Aug-20 00:50 286 8 gusting 12 22.8
2019-Aug-20 00:40 284 7 gusting 13 22.8
2019-Aug-20 00:30 285 9 gusting 11 22.2
2019-Aug-20 00:20 267 6 gusting 10 22.2
2019-Aug-20 00:10 256 6 gusting 14 22.2
2019-Aug-20 00:00 295 12 gusting 15 22.2
2019-Aug-19 23:50 258 8 gusting 16 23.3
2019-Aug-19 23:40 253 9 gusting 17 24.4
2019-Aug-19 23:30 257 9 gusting 15 24.4
2019-Aug-19 23:20 256 6 gusting 12 25.0
2019-Aug-19 23:10 259 8 gusting 13 25.0
2019-Aug-19 23:00 282 9 gusting 13 25.0
2019-Aug-19 22:50 278 7 gusting 16 25.6
2019-Aug-19 22:40 282 11 gusting 13 25.0
2019-Aug-19 22:30 281 6 gusting 16 26.1
2019-Aug-19 22:20 282 11 gusting 14 25.6
2019-Aug-19 22:10 253 6 gusting 13 26.1
2019-Aug-19 22:00 263 7 gusting 12 26.1
2019-Aug-19 21:50 263 9 gusting 15 26.7
2019-Aug-19 21:40 256 7 gusting 13 26.1
2019-Aug-19 21:30 255 3 gusting 10 25.6
2019-Aug-19 21:20 248 5 gusting 14 25.0
2019-Aug-19 21:10 233 10 gusting 16 25.6
2019-Aug-19 21:00 230 12 gusting 15 25.6
2019-Aug-19 20:50 230 13 gusting 15 26.1
2019-Aug-19 20:40 242 7 gusting 14 26.7
2019-Aug-19 20:30 255 4 gusting 13 25.6
2019-Aug-19 20:20 225 11 gusting 13 25.6
2019-Aug-19 20:10 219 9 gusting 14 26.1
2019-Aug-19 20:00 220 10 gusting 17 26.1
2019-Aug-19 19:50 222 12 gusting 16 26.1
2019-Aug-19 19:40 225 12 gusting 17 26.1
2019-Aug-19 19:30 213 9 gusting 15 26.1
2019-Aug-19 19:20 214 11 gusting 13 25.6
2019-Aug-19 19:10 212 10 gusting 14 26.1
2019-Aug-19 19:00 212 11 gusting 15 26.1
2019-Aug-19 18:50 214 9 gusting 13 26.1
2019-Aug-19 18:40 209 8 gusting 14 26.1
2019-Aug-19 18:30 209 9 gusting 14 26.1
2019-Aug-19 18:20 213 8 gusting 13 26.1
2019-Aug-19 18:10 213 9 gusting 13 26.1
2019-Aug-19 18:00 209 9 gusting 13 25.6
2019-Aug-19 17:50 210 8 gusting 15 25.6
2019-Aug-19 17:40 210 10 gusting 14 25.6
2019-Aug-19 17:30 205 10 gusting 13 26.1
2019-Aug-19 17:20 208 7 gusting 12 27.2
2019-Aug-19 17:10 243 6 gusting 10 28.9
2019-Aug-19 17:00 263 3 gusting 11 28.9
2019-Aug-19 16:50 260 6 gusting 11 28.3
2019-Aug-19 16:40 255 6 gusting 10 28.3
2019-Aug-19 16:30 249 5 gusting 11 28.3
2019-Aug-19 16:20 250 5 gusting 10 27.8
2019-Aug-19 16:10 256 3 gusting 7 28.9
2019-Aug-19 16:00 244 2 gusting 7 27.2
2019-Aug-19 15:50 233 4 gusting 8 27.2
2019-Aug-19 15:40 254 3 gusting 9 28.3
2019-Aug-19 15:30 253 4 gusting 8 27.8
2019-Aug-19 15:20 250 3 gusting 7 27.8
2019-Aug-19 15:10 261 4 gusting 8 27.8
2019-Aug-19 15:00 245 3 gusting 6 27.8
2019-Aug-19 14:50 243 3 gusting 6 27.8
2019-Aug-19 14:40 252 4 gusting 8 27.8
2019-Aug-19 14:30 248 4 gusting 8 27.2
2019-Aug-19 14:20 253 5 gusting 7 26.7
2019-Aug-19 14:10 258 2 gusting 6 26.7
2019-Aug-19 14:00 250 3 gusting 7 26.1
2019-Aug-19 13:50 250 4 gusting 7 26.1
2019-Aug-19 13:40 249 3 gusting 6 26.7
2019-Aug-19 13:30 278 2 gusting 5 26.1
2019-Aug-19 13:20 263 3 gusting 6 25.6
2019-Aug-19 13:10 263 2 gusting 6 25.6
2019-Aug-19 13:00 256 2 gusting 7 25.6
2019-Aug-19 12:50 269 3 gusting 7 25.0
2019-Aug-19 12:40 276 5 gusting 6 24.4
2019-Aug-19 12:30 263 4 gusting 7 24.4
2019-Aug-19 12:20 258 5 gusting 7 23.9
2019-Aug-19 12:10 252 6 gusting 8 23.9
2019-Aug-19 12:00 252 4 gusting 7 23.3
2019-Aug-19 11:50 259 4 gusting 9 23.3
2019-Aug-19 11:40 249 5 gusting 10 23.3
2019-Aug-19 11:30 256 6 gusting 10 23.3
2019-Aug-19 11:20 252 5 gusting 9 23.3
2019-Aug-19 11:10 258 6 gusting 9 23.3
2019-Aug-19 11:00 250 5 gusting 9 23.3
2019-Aug-19 10:50 277 4 gusting 8 23.3
2019-Aug-19 10:40 283 4 gusting 7 23.3
2019-Aug-19 10:30 259 4 gusting 7 23.3
2019-Aug-19 10:20 251 4 gusting 8 23.9
2019-Aug-19 10:10 273 4 gusting 10 23.3
2019-Aug-19 10:00 282 6 gusting 10 23.3
2019-Aug-19 09:50 283 7 gusting 11 23.3
2019-Aug-19 09:40 278 6 gusting 9 23.3
2019-Aug-19 09:30 274 5 gusting 9 23.3
2019-Aug-19 09:20 259 6 gusting 11 22.8
2019-Aug-19 09:10 260 5 gusting 8 22.8
2019-Aug-19 09:00 261 4 gusting 9 22.8
2019-Aug-19 08:50 253 6 gusting 12 22.8
2019-Aug-19 08:40 252 6 gusting 10 22.2
2019-Aug-19 08:30 254 3 gusting 10 22.2
2019-Aug-19 08:20 244 6 gusting 11 22.2
2019-Aug-19 08:10 232 11 gusting 17 22.2
2019-Aug-19 08:00 218 12 gusting 16 21.7
2019-Aug-19 07:50 218 13 gusting 15 21.7
2019-Aug-19 07:40 225 13 gusting 15 22.2
2019-Aug-19 07:30 227 13 gusting 17 22.2
2019-Aug-19 07:20 232 10 gusting 15 22.2
2019-Aug-19 07:10 241 6 gusting 9 22.2
2019-Aug-19 07:00 256 6 gusting 10 22.8
2019-Aug-19 06:50 254 6 gusting 11 22.2
2019-Aug-19 06:40 250 5 gusting 10 22.2
2019-Aug-19 06:30 250 5 gusting 10 21.7
2019-Aug-19 06:20 236 7 gusting 13 21.7
2019-Aug-19 06:10 237 6 gusting 15 21.7
2019-Aug-19 06:00 235 8 gusting 15 21.7
2019-Aug-19 05:50 228 10 gusting 15 22.2
2019-Aug-19 05:40 220 11 gusting 15 21.7
2019-Aug-19 05:30 222 12 gusting 14 21.7
2019-Aug-19 05:20 217 10 gusting 13 21.1
2019-Aug-19 05:10 210 6 gusting 8 21.1
2019-Aug-19 05:00 203 6 gusting 10 21.1
2019-Aug-19 04:50 212 8 gusting 12 21.7
2019-Aug-19 04:40 217 9 gusting 11 22.8
2019-Aug-19 04:30 223 8 gusting 11 23.3
2019-Aug-19 04:20 218 6 gusting 9 22.8
2019-Aug-19 04:10 233 6 gusting 7 22.8
2019-Aug-19 04:00 250 3 gusting 6 22.8